Regional Weather Roundup
Issued by NWS Bismarck, ND

Home | Current Version | Previous Version | Text Only | Print | Product List | Glossary On
Versions: 1 2 3 4 5 6 7 8 9 10 11 12 13 14 15 16 17 18 19 20 21 22 23 24 25 26 27 28 29 30 31 32 33 34 35 36 37 38 39 40 41 42 43 44 45 46 47 48 49 50
000
ASUS43 KBIS 260010
RWRBIS

NWR BROADCAST TEXT
NATIONAL WEATHER SERVICE BISMARCK ND
700 PM CDT THU MAY 25 2017

NOTE: "FAIR" INDICATES FEW OR NO CLOUDS BELOW 12,000 FEET WITH NO
SIGNIFICANT WEATHER AND/OR OBSTRUCTIONS TO VISIBILITY.


CITY           SKY/WX    TMP DP  RH WIND       PRES   REMARKS
WILLISTON      CLOUDY    62  41  46 W15       29.48R
MINOT          CLOUDY    63  45  51 SW18G30   29.45R
MINOT AFB      PTSUNNY   62  45  53 W17G24    29.44R
BISMARCK       FAIR      71  42  35 W22G29    29.50R
DICKINSON      CLOUDY    57  42  57 W24G30    29.55R
GARRISON         N/A     62  44  51 W24G33    29.48R
HETTINGER ARPT PTSUNNY   59  42  53 W20G32    29.61R
JAMESTOWN      FAIR      71  49  45 S9        29.46R
HAZEN          CLOUDY    63  45  51 W22G29    29.52R
LINTON         MOCLDY    72  45  37 NW17      29.51R
MANDAN         FAIR      66  43  42 W22G30    29.52R
STANLEY        CLOUDY    59  52  77 W17G24    29.49R
TIOGA          CLOUDY    61  41  48 W18       29.48R
WATFORD CITY   CLOUDY    59  43  55 W18G25    29.50R
$$

CITY           SKY/WX    TMP DP  RH WIND       PRES   REMARKS
GRAND FORKS    PTSUNNY   68  51  54 SE17G24   29.48S
GRAND FORKS AF FAIR      66  50  55 S18G26    29.47F
DEVILS LAKE    FAIR      70  49  47 S14       29.43S
FARGO          CLOUDY    68  50  52 S18G24    29.50S
CAVALIER       FAIR      68  48  49 S22G30    29.46S
GRAFTON        MOCLDY    66  48  52 SE16G22   29.50S
GWINNER        PTCLDY    70  54  56 MISG      29.49R
LANGDON          N/A     66  50  55 S20G28    29.45S
ROLLA          CLOUDY    64  45  48 W16       29.42R
$$

CITY           SKY/WX    TMP DP  RH WIND       PRES   REMARKS
ABERDEEN       CLOUDY    75  48  38 VRB3      29.48R
MOBRIDGE       FAIR      73  36  25 W13       29.48R
BUFFALO          N/A     55  43  63 NW29G37   29.60R
RAPID CITY     FAIR      66  34  30 N16G22    29.61R
GLASGOW        PTSUNNY   56  39  53 W24G38    29.59R
SIDNEY         LGT RAIN  56  45  66 W16G25    29.53R
WOLF POINT     LGT RAIN  57  47  69 NW24G39   29.56R
GLENDIVE       CLOUDY    56  43  61 NW20G29   29.59R
MILES CITY     CLOUDY    57  38  48 W23G30    29.66R
BAKER          PTSUNNY   53  43  68 W24       29.64R
$$

CITY           SKY/WX    TMP DP  RH WIND       PRES   REMARKS
BILLINGS       PTSUNNY   58  30  34 NW20G26   29.76R
GREAT FALLS    PTSUNNY   55  34  45 NW10      29.82S
REGINA         PTSUNNY   55  43  62 NW25G33   29.39R
ESTEVAN        PTSUNNY   59  43  55 W23G38    29.41R
$$




USA.gov is the U.S. government's official web portal to all federal, state and local government web resources and services.